Location: Newark
(27.9675°N, 86.8869°E)
Time: 17:57:30
(UTC+00:00)

A-11 Canister half - Pass Details

Date: 24 October 2019
Orbit: 1527 x 1682 km, 47.3° (Epoch: 14 November)

Event Time Altitude Azimuth Distance (km) Brightness Sun altitude
Rises 11:46:22 0° 227° (SW) 4,815 12.7 -3.2°
Reaches altitude 10° 11:49:29 10° 227° (SW) 3,810 12.1 -3.9°
Maximum altitude 11:59:11 89° 316° (NW) 1,567 9.1 -6.0°
Drops below altitude 10° 12:08:36 10° 48° (NE) 3,712 10.5 -8.1°
Enters shadow 12:10:49 - 49° (NE) 4,424 10.9 -8.6°
